{"data":{"norad_id":61962,"intl_designator":"2024-210D","name":"STARLINK-32458","alt_names":[],"object_type":"PAYLOAD","status":"ACTIVE","operator":null,"country":"US","launch_date":"2024-11-14","launch_site_code":"AFETR","launch_vehicle":null,"mission":null,"orbit_class":"UNKNOWN","rcs_meters":null,"size_class":null,"mass_kg":null,"dimensions":null,"purposes":["comms"],"wikipedia_slug":null,"has_3d_model":false,"image_url":null,"decayed_at":null,"tle_current":{"epoch":"2026-09-21T01:13:18.423552Z","epoch_age_seconds":138047,"freshness":"FRESH","line1":"1 61962U 24210D   26264.05090768  .00011379  00000+0  42218-3 0  9998","line2":"2 61962  43.0032 142.1890 0000633 350.7330   9.3510 15.27595649104956","mean_motion":15.27595649,"eccentricity":6.33e-5,"inclination_deg":43.0032,"raan_deg":142.189,"arg_perigee_deg":350.733,"mean_anomaly_deg":9.351,"bstar":0.00042218,"rev_number":10495,"period_min":94.265783025937,"perigee_km":482.56792759023,"apogee_km":483.43654781773,"semimajor_km":6861.139237704,"source":"CELESTRAK","updated_at":"2026-09-22T09:00:49.458628Z"}}}